Satellite-Ground Cal/Val Site Overpasses Predictions

Prediction of Satellite NPP Overpassing Cal/Val Site: Antarctic Dome C

Ground Cal/Val Site Location: Latitude: -75.10, Longitude: 123.35; Satellite-Ground Site NADIR distance within 100 km.

Table of predicted overpasses for the next 14.0 days since TLE Epoch: 11/11/2023
Interval Starting Time Ending Time Minimum Distance Time Minimum Distance (km)
1 11/11/2023 07:32:08 11/11/2023 07:32:37 11/11/2023 07:32:23 3.34
2 11/14/2023 14:55:35 11/14/2023 14:56:04 11/14/2023 14:55:50 20.77
3 11/15/2023 14:36:53 11/15/2023 14:37:07 11/15/2023 14:37:00 86.29
4 11/16/2023 07:38:25 11/16/2023 07:38:52 11/16/2023 07:38:39 37.71
5 11/17/2023 07:19:39 11/17/2023 07:19:59 11/17/2023 07:19:49 72.32
6 11/19/2023 15:01:54 11/19/2023 15:02:18 11/19/2023 15:02:06 57.86
7 11/20/2023 14:43:03 11/20/2023 14:43:28 11/20/2023 14:43:16 51.39
8 11/21/2023 07:44:45 11/21/2023 07:45:04 11/21/2023 07:44:54 73.03
9 11/22/2023 07:25:51 11/22/2023 07:26:18 11/22/2023 07:26:04 34.93
